• în Republica Moldova
  • Lista ţărilor
  • Pe 7 zile
  • Temperatura apei
  • Hartă satelitară
  • Meteo pe hartă
  • Widget-uri
  • user-avatar
    Intrare

    Meteo pe oră la Kalgoorlie

    Astăzi, 12 Decembrie, Miercuri

    Timp Temperatura Precipitaţii Vânt Presiune Umiditate
    00:00 +26°C° 0 mm 6 m/s 726 mmHg 59%
    01:00 +24°C° 0 mm 6 m/s 726 mmHg 61%
    02:00 +23°C° 0 mm 6 m/s 726 mmHg 63%
    03:00 +22°C° 0 mm 6 m/s 727 mmHg 62%
    04:00 +21°C° 0 mm 6 m/s 727 mmHg 62%
    05:00 +20°C° 0 mm 6 m/s 727 mmHg 62%
    06:00 +21°C° 0 mm 6 m/s 728 mmHg 57%
    07:00 +22°C° 0 mm 7 m/s 728 mmHg 53%
    08:00 +22°C° 0 mm 7 m/s 729 mmHg 48%
    09:00 +24°C° 0 mm 6 m/s 729 mmHg 45%
    10:00 +26°C° 0 mm 6 m/s 729 mmHg 43%
    11:00 +27°C° 0 mm 6 m/s 729 mmHg 40%
    12:00 +28°C° 0 mm 6 m/s 729 mmHg 36%
    13:00 +29°C° 0 mm 6 m/s 729 mmHg 33%
    14:00 +30°C° 0 mm 6 m/s 729 mmHg 34%
    15:00 +30°C° 0 mm 6 m/s 729 mmHg 34%
    16:00 +30°C° 0 mm 6 m/s 729 mmHg 33%
    17:00 +30°C° 0 mm 6 m/s 729 mmHg 33%
    18:00 +28°C° 0 mm 7 m/s 730 mmHg 37%
    19:00 +26°C° 0 mm 8 m/s 730 mmHg 42%
    20:00 +24°C° 0 mm 9 m/s 731 mmHg 46%
    21:00 +23°C° 0 mm 9 m/s 731 mmHg 49%
    22:00 +22°C° 0 mm 9 m/s 732 mmHg 53%
    23:00 +19°C° 0 mm 9 m/s 732 mmHg 56%

    Mâine, 13 Decembrie, Joi

    Timp Temperatura Precipitaţii Vânt Presiune Umiditate
    00:00 +18°C° 0 mm 8 m/s 732 mmHg 59%
    01:00 +17°C° 0 mm 8 m/s 732 mmHg 62%
    02:00 +16°C° 0 mm 7 m/s 732 mmHg 65%
    03:00 +16°C° 0 mm 7 m/s 732 mmHg 66%
    04:00 +15°C° 0 mm 7 m/s 732 mmHg 66%
    05:00 +15°C° 0 mm 7 m/s 732 mmHg 67%
    06:00 +16°C° 0 mm 7 m/s 732 mmHg 62%
    07:00 +17°C° 0 mm 7 m/s 732 mmHg 56%
    08:00 +18°C° 0 mm 7 m/s 732 mmHg 51%
    09:00 +21°C° 0 mm 6 m/s 732 mmHg 44%
    10:00 +23°C° 0 mm 6 m/s 732 mmHg 37%
    11:00 +26°C° 0 mm 6 m/s 732 mmHg 30%
    12:00 +27°C° 0 mm 6 m/s 731 mmHg 26%
    13:00 +29°C° 0 mm 6 m/s 731 mmHg 22%
    14:00 +30°C° 0 mm 6 m/s 731 mmHg 18%
    15:00 +30°C° 0 mm 6 m/s 730 mmHg 17%
    16:00 +30°C° 0 mm 6 m/s 730 mmHg 17%
    17:00 +30°C° 0 mm 7 m/s 730 mmHg 16%
    18:00 +29°C° 0 mm 6 m/s 730 mmHg 18%
    19:00 +28°C° 0 mm 6 m/s 730 mmHg 20%
    20:00 +27°C° 0 mm 6 m/s 731 mmHg 22%
    21:00 +26°C° 0 mm 6 m/s 731 mmHg 25%
    22:00 +24°C° 0 mm 7 m/s 731 mmHg 27%
    23:00 +23°C° 0 mm 7 m/s 731 mmHg 30%

    Poimâine, 14 Decembrie, Vineri

    Timp Temperatura Precipitaţii Vânt Presiune Umiditate
    00:00 +22°C° 0 mm 7 m/s 731 mmHg 35%
    01:00 +21°C° 0 mm 7 m/s 730 mmHg 39%
    02:00 +20°C° 0 mm 8 m/s 730 mmHg 44%
    03:00 +20°C° 0 mm 8 m/s 730 mmHg 47%
    04:00 +18°C° 0 mm 8 m/s 730 mmHg 51%
    05:00 +17°C° 0 mm 7 m/s 730 mmHg 54%
    06:00 +18°C° 0 mm 7 m/s 730 mmHg 51%
    07:00 +20°C° 0 mm 7 m/s 730 mmHg 47%
    08:00 +22°C° 0 mm 7 m/s 730 mmHg 44%
    09:00 +24°C° 0 mm 7 m/s 730 mmHg 37%
    10:00 +27°C° 0 mm 7 m/s 730 mmHg 30%
    11:00 +29°C° 0 mm 7 m/s 729 mmHg 24%
    12:00 +30°C° 0 mm 7 m/s 728 mmHg 21%
    13:00 +32°C° 0 mm 6 m/s 728 mmHg 18%
    14:00 +34°C° 0 mm 6 m/s 727 mmHg 16%
    15:00 +34°C° 0 mm 5 m/s 727 mmHg 15%
    16:00 +34°C° 0 mm 5 m/s 726 mmHg 14%
    17:00 +34°C° 0 mm 5 m/s 726 mmHg 14%
    18:00 +33°C° 0 mm 5 m/s 726 mmHg 15%
    19:00 +32°C° 0 mm 6 m/s 727 mmHg 16%
    20:00 +30°C° 0 mm 6 m/s 727 mmHg 18%
    21:00 +29°C° 0 mm 6 m/s 727 mmHg 19%
    22:00 +28°C° 0 mm 7 m/s 727 mmHg 21%
    23:00 +27°C° 0 mm 8 m/s 727 mmHg 23%

    15 Decembrie, Sâmbătă

    Timp Temperatura Precipitaţii Vânt Presiune Umiditate
    00:00 +26°C° 0 mm 8 m/s 726 mmHg 25%
    01:00 +26°C° 0 mm 8 m/s 725 mmHg 26%
    02:00 +24°C° 0 mm 9 m/s 725 mmHg 28%
    03:00 +23°C° 0 mm 8 m/s 725 mmHg 30%
    04:00 +23°C° 0 mm 8 m/s 725 mmHg 32%
    05:00 +22°C° 0 mm 7 m/s 725 mmHg 35%
    06:00 +23°C° 0 mm 7 m/s 725 mmHg 32%
    07:00 +24°C° 0 mm 7 m/s 725 mmHg 30%
    08:00 +26°C° 0 mm 8 m/s 726 mmHg 28%
    09:00 +29°C° 0 mm 8 m/s 725 mmHg 24%
    10:00 +32°C° 0 mm 8 m/s 725 mmHg 20%
    11:00 +34°C° 0 mm 8 m/s 724 mmHg 16%
    12:00 +37°C° 0 mm 8 m/s 723 mmHg 14%
    13:00 +38°C° 0 mm 7 m/s 722 mmHg 13%
    14:00 +39°C° 0 mm 7 m/s 721 mmHg 12%
    15:00 +40°C° 0 mm 7 m/s 721 mmHg 11%
    16:00 +40°C° 0 mm 7 m/s 720 mmHg 11%
    17:00 +41°C° 0 mm 7 m/s 719 mmHg 11%
    18:00 +40°C° 0 mm 8 m/s 719 mmHg 12%
    19:00 +39°C° 0 mm 8 m/s 719 mmHg 13%
    20:00 +37°C° 0 mm 9 m/s 719 mmHg 13%
    21:00 +35°C° 0 mm 8 m/s 719 mmHg 15%
    22:00 +34°C° 0 mm 7 m/s 720 mmHg 16%
    23:00 +33°C° 0 mm 6 m/s 720 mmHg 17%

    16 Decembrie, Duminică

    Timp Temperatura Precipitaţii Vânt Presiune Umiditate
    00:00 +32°C° 0 mm 6 m/s 720 mmHg 20%
    01:00 +30°C° 0 mm 5 m/s 720 mmHg 23%
    02:00 +29°C° 0 mm 5 m/s 720 mmHg 26%
    03:00 +28°C° 0 mm 5 m/s 720 mmHg 29%
    04:00 +27°C° 0 mm 4 m/s 720 mmHg 33%
    05:00 +26°C° 0 mm 4 m/s 720 mmHg 36%
    06:00 +27°C° 0 mm 4 m/s 720 mmHg 37%
    07:00 +28°C° 0 mm 5 m/s 721 mmHg 39%
    08:00 +28°C° 0 mm 5 m/s 721 mmHg 40%
    09:00 +30°C° 0 mm 6 m/s 721 mmHg 35%
    10:00 +33°C° 0 mm 6 m/s 721 mmHg 29%
    11:00 +34°C° 0 mm 7 m/s 720 mmHg 24%
    12:00 +35°C° 0 mm 7 m/s 720 mmHg 22%
    13:00 +36°C° 0 mm 7 m/s 720 mmHg 19%
    14:00 +38°C° 0 mm 8 m/s 719 mmHg 17%
    15:00 +37°C° 0 mm 8 m/s 719 mmHg 17%
    16:00 +37°C° 0 mm 8 m/s 719 mmHg 17%
    17:00 +37°C° 0 mm 8 m/s 719 mmHg 18%
    18:00 +34°C° 0 mm 8 m/s 720 mmHg 20%
    19:00 +33°C° 0 mm 8 m/s 720 mmHg 23%
    20:00 +31°C° 0 mm 9 m/s 721 mmHg 26%
    21:00 +28°C° 0 mm 9 m/s 721 mmHg 33%
    22:00 +26°C° 0 mm 9 m/s 722 mmHg 41%
    23:00 +23°C° 0 mm 9 m/s 722 mmHg 48%

    17 Decembrie, Luni

    Timp Temperatura Precipitaţii Vânt Presiune Umiditate
    00:00 +22°C° 0 mm 8 m/s 722 mmHg 52%
    01:00 +21°C° 0 mm 8 m/s 722 mmHg 56%
    02:00 +21°C° 0 mm 7 m/s 722 mmHg 60%
    03:00 +20°C° 0 mm 7 m/s 722 mmHg 63%
    04:00 +18°C° 0 mm 7 m/s 722 mmHg 67%
    05:00 +19°C° 0 mm 6 m/s 723 mmHg 70%
    06:00 +20°C° 0 mm 6 m/s 723 mmHg 65%
    07:00 +21°C° 0 mm 6 m/s 724 mmHg 59%
    08:00 +22°C° 0 mm 6 m/s 724 mmHg 54%
    09:00 +24°C° 0 mm 6 m/s 724 mmHg 49%
    10:00 +26°C° 0 mm 6 m/s 724 mmHg 43%
    11:00 +27°C° 0 mm 6 m/s 724 mmHg 38%
    12:00 +28°C° 0 mm 7 m/s 724 mmHg 37%
    13:00 +28°C° 0 mm 7 m/s 723 mmHg 36%
    14:00 +28°C° 0 mm 8 m/s 723 mmHg 35%
    15:00 +28°C° 0 mm 8 m/s 723 mmHg 36%
    16:00 +28°C° 0 mm 8 m/s 724 mmHg 36%
    17:00 +27°C° 0 mm 8 m/s 724 mmHg 37%
    18:00 +26°C° 0 mm 8 m/s 725 mmHg 40%
    19:00 +24°C° 0 mm 8 m/s 725 mmHg 43%
    20:00 +24°C° 0 mm 8 m/s 726 mmHg 46%
    21:00 +23°C° 0 mm 7 m/s 726 mmHg 51%
    22:00 +21°C° 0 mm 7 m/s 726 mmHg 56%
    23:00 +20°C° 0 mm 7 m/s 727 mmHg 61%
    Arată mai mult